Regional Weather Roundup
Issued by NWS

Home | Current Version | Previous Version | Graphics & Text | Print | Product List | Glossary On
Versions: 1 2 3 4 5 6 7 8 9 10 11 12 13 14 15 16 17 18 19 20 21 22 23 24 25 26 27 28 29 30 31 32 33 34 35 36 37 38 39 40 41 42 43 44 45 46 47 48 49 50
000
ASUS43 KIND 281809
RWRIN

WEATHER ROUNDUP FOR INDIANA
NATIONAL WEATHER SERVICE INDIANAPOLIS IN
200 PM EDT SUN AUG 28 2016

NOTE: "FAIR" INDICATES FEW OR NO CLOUDS BELOW 12,000 FEET WITH NO
SIGNIFICANT WEATHER AND/OR OBSTRUCTIONS TO VISIBILITY.

* - STATION DOES NOT REPORT WEATHER SUCH AS PRECIPITATION OR FOG.

+ - STATION NOT QUALITY CONTROLLED BY THE NATIONAL WEATHER SERVICE.
    USE DATA WITH CAUTION...ESPECIALLY DEWPOINT AND RELATIVE
    HUMIDITY OBSERVATIONS.

INZ001>003-010>013-019-020-281900-
NORTHWEST INDIANA

CITY           SKY/WX    TMP DP  RH WIND       PRES   REMARKS
GARY /AIRPORT/ MOSUNNY   81  75  83 N15       30.20F
KNOX *+        MOSUNNY   86  48  26 CALM      30.18F
LA PORTE +     CLOUDY    80  76  89 SE5       30.21R THUNDER
MICHIGAN CITY+ MOSUNNY   79  75  89 CALM      30.21S
MONTICELLO +   MOSUNNY   87  68  54 CALM      30.18F
6HR MIN TEMP:  69; 6HR MAX TEMP:  87;

RENSSELAER +   CLOUDY    86  75  70 CALM      30.18F HX  95
VALPARAISO     PTSUNNY   80  73  79 SE8       30.20S
6HR MIN TEMP:  71; 6HR MAX TEMP:  86;


$$

LMZ046-743>745-281900-
SOUTHERN LAKE MICHIGAN

STATION/POSITION TIME  TEMP    WIND        PRES    WAVE
                       AIR SEA DIR/SP/G            HT
                 (UTC) (F)     (DEG/KT/KT) (MB)    (FT)
BURNS HARBOR     1700   76      50/  9/ 12 1023.0F
MICHIGAN CITY    1700   75      10/ 12/ 12   N/A
5NW MICH CITY    1800   76 77   30/ 12/ 14   N/A     2

$$

INZ004-005-014>016-021>024-281900-
NORTH CENTRAL INDIANA

CITY           SKY/WX    TMP DP  RH WIND       PRES   REMARKS
ELKHART        CLOUDY    81  72  74 E6        30.20F
GOSHEN         SUNNY     85  72  65 VRB3      30.19F
6HR MIN TEMP:  73; 6HR MAX TEMP:  86;

LOGANSPORT +   MOSUNNY   86  72  62 CALM      30.19F
PERU/GRISSOM   PTSUNNY   86  73  64 VRB1      30.19F
6HR MIN TEMP:  72; 6HR MAX TEMP:  87;

ROCHESTER +    MOSUNNY   88  73  62 CALM      30.19F HX  96
SOUTH BEND     SUNNY     82  72  71 N7        30.19F
6HR MIN TEMP:  72; 6HR MAX TEMP:  84; 6HR PCP: TRACE;

WARSAW +       CLOUDY    82  73  74 CALM      30.19F

$$

INZ006>009-017-018-025>027-281900-
NORTHEAST INDIANA

CITY           SKY/WX    TMP DP  RH WIND       PRES   REMARKS
ANGOLA *+      MOSUNNY   79  75  89 E5        30.21F
AUBURN +       MOSUNNY   86  68  54 W6        30.21F
FORT WAYNE     PTSUNNY   88  72  58 VRB3      30.20F
6HR MIN TEMP:  68; 6HR MAX TEMP:  88;

HUNTINGTON +   MOSUNNY   85  73  65 SW3       30.20F
6HR MIN TEMP:  68; 6HR MAX TEMP:  85;


$$

INZ028-029-035-036-043>045-051>053-281900-
WEST CENTRAL INDIANA

CITY           SKY/WX    TMP DP  RH WIND       PRES   REMARKS
CRAWFORDSVL +  MOSUNNY   85  73  67 CALM      30.20F
6HR MIN TEMP:  66; 6HR MAX TEMP:  85; 6HR PCP:  0.01;

GREENCASTLE +  MOSUNNY   86  77  74 CALM      30.21S HX  97
LAFAYETTE      MOSUNNY   85  74  69 CALM      30.17F
6HR MIN TEMP:  70; 6HR MAX TEMP:  87;

TERRE HAUTE    SUNNY     91  72  53 NE3       30.18F HX  98
6HR MIN TEMP:  70; 6HR MAX TEMP:  91;


$$

INZ030>032-037>040-046>048-054>057-064-065-281900-
CENTRAL INDIANA

CITY           SKY/WX    TMP DP  RH WIND       PRES   REMARKS
COLUMBUS       MOSUNNY   88  77  70 SE3       30.19F HX 100
INDIANAPOLIS   PTSUNNY   86  71  60 CALM      30.19F
6HR MIN TEMP:  73; 6HR MAX TEMP:  87; 6HR PCP: TRACE;

-EAGLE CREEK   PTSUNNY   88  72  58 CALM      30.19F
6HR MIN TEMP:  72; 6HR MAX TEMP:  89;

KOKOMO *+      MOSUNNY   84  73  70 CALM      30.20S
6HR MIN TEMP:  70; 6HR MAX TEMP:  88;

MARION +       CLOUDY    85  72  65 CALM      30.21S HAZE
MT COMFORT *+  MOSUNNY   86  73  66 CALM      30.21S
SHELBYVILLE    MOSUNNY   88  72  58 CALM      30.19S
6HR MIN TEMP:  71; 6HR MAX TEMP:  90;

ZIONSVILLE +   MOSUNNY   85  73  66 CALM      30.21F
6HR MIN TEMP:  67; 6HR MAX TEMP:  85;


$$

INZ033-034-041-042-049-050-058-059-281900-
EAST CENTRAL INDIANA

CITY           SKY/WX    TMP DP  RH WIND       PRES   REMARKS
MUNCIE         MOSUNNY   88  73  61 CALM      30.21S HX  95
6HR MIN TEMP:  71; 6HR MAX TEMP:  88;


$$

INZ060-061-067>069-081>083-085>088-281900-
SOUTHWEST INDIANA

CITY           SKY/WX    TMP DP  RH WIND       PRES   REMARKS
EVANSVILLE     PTSUNNY   92  75  57 E7        30.16F HX 103
6HR MIN TEMP:  75; 6HR MAX TEMP:  92;

HUNTINGBURG *+ MOSUNNY   90  73  58 CALM      30.17F HX  98
6HR MIN TEMP:  73; 6HR MAX TEMP:  90;

WASHINGTON +   SUNNY     89  76  65 MISG      30.17S HX 100
6HR MIN TEMP:  72; 6HR MAX TEMP:  89;


$$

INZ062-063-066-070>080-084-089>092-281900-
SOUTH CENTRAL AND SOUTHEAST INDIANA

CITY           SKY/WX    TMP DP  RH WIND       PRES   REMARKS
BLOOMINGTON    MOSUNNY   90  72  55 S5        30.19F HX  97
6HR MIN TEMP:  73; 6HR MAX TEMP:  90;

MADISON *+     SUNNY     90  72  55 CALM      30.21F HX  96

$$





USA.gov is the U.S. government's official web portal to all federal, state and local government web resources and services.